Total_Precipitation_Accumulation
1.01 1.29 1.71 1.98 2.39 2.82 2.97 3.00 2.93 3.10 3.39 3.33 3.09 2.82 2.53 2.31 2.09 1.94 1.79 1.64 1.52 1.44 1.36 1.25 1.27 1.26 1.21 1.16 1.10 1.04 0.97 0.90 0.87 0.85 0.75 0.63 0.57 0.51 0.43 0.40 0.38 0.34 0.32
0.91 1.19 1.48 1.79 2.02 2.59 2.91 2.94 3.01 3.13 3.32 3.26 3.14 3.04 2.89 2.66 2.43 2.25 1.95 1.75 1.61 1.50 1.46 1.35 1.24 1.28 1.30 1.23 1.20 1.20 1.20 1.16 1.13 1.12 1.09 0.93 0.76 0.58 0.47 0.45 0.43 0.42 0.43
0.87 1.06 1.25 1.52 1.67 2.06 2.51 2.70 2.74 2.93 3.10 3.30 3.59 3.56 3.39 3.00 2.52 2.23 2.06 1.90 1.84 1.73 1.59 1.57 1.48 1.35 1.35 1.30 1.20 1.13 1.14 1.18 1.20 1.18 1.27 1.18 0.93 0.71 0.57 0.48 0.43 0.43 0.45
0.79 0.96 1.11 1.23 1.42 1.66 2.05 2.42 2.62 2.73 2.78 2.90 3.22 3.35 3.22 2.84 2.45 2.20 2.15 2.17 2.07 2.02 1.94 1.81 1.74 1.60 1.49 1.43 1.39 1.34 1.25 1.23 1.24 1.22 1.14 1.09 0.97 0.92 0.77 0.58 0.49 0.46 0.46
0.83 0.95 1.02 1.03 1.15 1.39 1.76 2.10 2.36 2.57 2.59 2.55 2.70 2.97 3.10 3.02 2.83 2.56 2.38 2.28 2.20 2.08 2.03 1.97 1.90 1.77 1.66 1.61 1.61 1.55 1.49 1.45 1.37 1.31 1.23 1.19 1.05 0.95 0.96 0.76 0.57 0.56 0.54
0.88 0.93 0.97 0.98 1.03 1.18 1.43 1.73 1.99 2.31 2.49 2.44 2.52 2.62 2.70 2.85 2.82 2.57 2.48 2.37 2.35 2.24 2.07 1.98 1.94 1.89 1.83 1.76 1.75 1.76 1.68 1.59 1.52 1.48 1.41 1.39 1.31 1.13 1.10 1.01 0.79 0.73 0.66
0.77 0.79 0.80 0.85 0.96 1.08 1.21 1.43 1.55 1.82 2.11 2.25 2.30 2.35 2.43 2.51 2.62 2.58 2.49 2.43 2.29 2.20 2.14 2.02 1.98 1.97 1.87 1.82 1.81 1.78 1.71 1.66 1.60 1.59 1.55 1.48 1.39 1.32 1.34 1.37 1.19 1.03 0.86
0.77 0.78 0.76 0.82 0.96 1.03 1.11 1.25 1.36 1.49 1.74 1.95 1.99 2.03 2.17 2.25 2.25 2.33 2.30 2.26 2.20 2.13 2.15 2.14 2.01 1.98 1.93 1.83 1.78 1.74 1.65 1.62 1.59 1.55 1.56 1.53 1.45 1.44 1.47 1.53 1.59 1.48 1.20
0.70 0.76 0.79 0.84 0.91 0.96 1.03 1.13 1.23 1.26 1.38 1.62 1.75 1.82 1.87 1.88 1.83 1.85 1.87 1.91 1.95 1.98 2.00 2.02 1.93 1.85 1.82 1.77 1.72 1.67 1.59 1.54 1.49 1.45 1.45 1.43 1.38 1.39 1.42 1.49 1.65 1.83 1.68
0.69 0.75 0.79 0.77 0.79 0.84 0.92 1.03 1.08 1.07 1.12 1.25 1.38 1.54 1.62 1.61 1.63 1.61 1.57 1.56 1.55 1.61 1.68 1.74 1.74 1.68 1.64 1.62 1.59 1.53 1.50 1.49 1.41 1.35 1.35 1.31 1.27 1.31 1.37 1.45 1.52 1.68 1.80
0.72 0.78 0.82 0.79 0.77 0.82 0.88 0.94 0.93 0.96 0.99 1.06 1.12 1.19 1.32 1.40 1.42 1.41 1.31 1.31 1.28 1.26 1.32 1.34 1.37 1.41 1.42 1.43 1.42 1.39 1.38 1.39 1.35 1.33 1.33 1.32 1.28 1.28 1.28 1.32 1.37 1.43 1.56
0.64 0.71 0.78 0.77 0.77 0.81 0.86 0.91 0.88 0.89 0.91 0.96 0.97 1.00 1.08 1.22 1.26 1.29 1.21 1.13 1.14 1.09 1.10 1.11 1.10 1.10 1.11 1.16 1.19 1.17 1.19 1.22 1.21 1.21 1.23 1.24 1.26 1.29 1.26 1.25 1.24 1.22 1.22
0.57 0.61 0.64 0.68 0.72 0.76 0.80 0.87 0.86 0.81 0.80 0.83 0.84 0.90 0.98 1.07 1.11 1.10 1.12 1.06 1.07 1.00 0.97 0.96 0.96 0.95 0.94 0.95 1.00 1.07 1.09 1.11 1.11 1.11 1.13 1.13 1.18 1.18 1.13 1.11 1.09 1.07 1.10
0.45 0.47 0.52 0.56 0.61 0.66 0.72 0.76 0.78 0.79 0.81 0.80 0.77 0.80 0.87 1.00 1.04 0.98 1.00 0.99 1.04 1.04 0.94 0.90 0.88 0.89 0.90 0.91 0.94 1.02 1.08 1.10 1.10 1.12 1.12 1.08 1.05 1.02 1.00 1.01 1.03 1.09 1.19
0.34 0.38 0.41 0.42 0.47 0.52 0.57 0.63 0.68 0.71 0.76 0.78 0.77 0.77 0.78 0.88 0.92 0.86 0.87 0.88 0.92 1.02 1.00 0.95 0.91 0.89 0.89 0.92 0.95 0.98 1.04 1.06 1.08 1.07 1.04 1.02 1.02 0.99 0.97 0.99 1.03 1.11 1.26
0.25 0.27 0.28 0.30 0.32 0.36 0.42 0.49 0.56 0.61 0.69 0.71 0.74 0.73 0.73 0.78 0.87 0.84 0.81 0.83 0.87 0.96 1.02 1.05 1.02 0.97 0.95 1.09 1.06 1.00 1.00 1.03 1.04 1.03 0.98 0.95 0.99 0.97 0.98 1.00 1.07 1.21 1.37
0.18 0.19 0.19 0.20 0.21 0.26 0.30 0.36 0.42 0.48 0.56 0.64 0.69 0.72 0.75 0.79 0.85 0.86 0.84 0.89 0.96 1.02 1.04 1.10 1.12 1.10 1.13 1.17 1.03 1.01 0.94 0.93 0.95 0.94 0.92 0.89 0.86 0.91 0.85 0.92 1.04 1.13 1.25
0.19 0.20 0.20 0.20 0.19 0.21 0.22 0.25 0.32 0.40 0.46 0.52 0.60 0.64 0.70 0.73 0.75 0.82 0.86 0.91 0.96 1.02 1.06 1.10 1.09 1.06 1.06 1.07 0.96 0.92 0.86 0.87 0.87 0.86 0.85 0.87 0.87 0.86 0.93 0.99 1.05 0.95 0.89
0.19 0.19 0.19 0.19 0.19 0.19 0.19 0.21 0.28 0.36 0.41 0.48 0.56 0.61 0.70 0.73 0.76 0.83 0.85 0.88 0.94 0.98 0.96 0.96 0.98 0.97 0.97 0.94 0.86 0.83 0.78 0.81 0.77 0.75 0.75 0.78 0.80 0.94 1.12 1.17 1.17 0.99 0.81
0.17 0.18 0.18 0.18 0.20 0.22 0.24 0.26 0.30 0.37 0.41 0.47 0.56 0.59 0.68 0.79 0.82 0.84 0.83 0.81 0.86 0.92 0.88 0.83 0.81 0.80 0.81 0.84 0.79 0.77 0.73 0.77 0.74 0.71 0.70 0.78 0.81 0.95 1.11 1.07 1.13 1.08 0.90
0.19 0.18 0.19 0.21 0.25 0.29 0.32 0.34 0.38 0.43 0.45 0.48 0.54 0.55 0.59 0.66 0.70 0.72 0.73 0.75 0.75 0.76 0.71 0.68 0.67 0.65 0.66 0.70 0.67 0.66 0.65 0.70 0.72 0.68 0.63 0.65 0.84 0.96 1.03 0.99 0.90 1.01 1.09
0.21 0.20 0.21 0.23 0.24 0.31 0.38 0.39 0.39 0.41 0.42 0.44 0.50 0.52 0.54 0.57 0.59 0.62 0.65 0.67 0.66 0.65 0.62 0.58 0.57 0.55 0.55 0.58 0.59 0.61 0.65 0.73 0.69 0.64 0.59 0.63 0.81 0.84 0.86 0.82 0.87 1.05 1.07
0.22 0.20 0.20 0.21 0.22 0.25 0.32 0.39 0.40 0.39 0.40 0.43 0.48 0.50 0.50 0.51 0.55 0.56 0.58 0.57 0.55 0.55 0.53 0.52 0.50 0.49 0.50 0.55 0.62 0.62 0.68 0.73 0.68 0.62 0.69 0.74 0.76 0.72 0.72 0.82 0.94 0.93 0.86
0.19 0.19 0.18 0.19 0.23 0.24 0.25 0.30 0.33 0.35 0.38 0.39 0.41 0.45 0.47 0.45 0.45 0.47 0.50 0.53 0.53 0.53 0.51 0.51 0.49 0.47 0.47 0.49 0.53 0.59 0.62 0.65 0.67 0.69 0.70 0.68 0.66 0.66 0.69 0.76 0.78 0.78 0.88
0.18 0.19 0.19 0.19 0.21 0.21 0.22 0.23 0.24 0.27 0.32 0.35 0.37 0.37 0.39 0.40 0.40 0.40 0.43 0.48 0.50 0.56 0.61 0.60 0.58 0.57 0.53 0.52 0.63 0.67 0.65 0.67 0.69 0.70 0.64 0.60 0.59 0.60 0.61 0.65 0.68 0.75 0.89
0.18 0.18 0.18 0.18 0.20 0.21 0.24 0.24 0.24 0.26 0.28 0.31 0.33 0.34 0.35 0.36 0.37 0.38 0.36 0.40 0.44 0.50 0.56 0.62 0.64 0.61 0.61 0.64 0.66 0.66 0.70 0.73 0.75 0.73 0.65 0.61 0.60 0.63 0.65 0.68 0.71 0.75 0.89